• In Romania
  • List of Countries
  • For 7 days
  • Water Temperature
  • Satellite Maps
  • Weather Map
  • Weather Widgets
  • user-avatar
    Login

    Hourly Weather Booué

    Today, 14 August, Tuesday

    Time Temperature Precipitation Wind Pressure Humidity
    00:00 +25°C° 0 mm 1 mps 736 mmHg 80%
    01:00 +25°C° 0 mm 1 mps 736 mmHg 82%
    02:00 +25°C° 0 mm 1 mps 736 mmHg 84%
    03:00 +24°C° 0 mm 1 mps 736 mmHg 86%
    04:00 +24°C° 0 mm 1 mps 736 mmHg 88%
    05:00 +24°C° 0 mm 1 mps 736 mmHg 88%
    06:00 +24°C° 0 mm 1 mps 736 mmHg 87%
    07:00 +24°C° 0 mm 1 mps 736 mmHg 87%
    08:00 +26°C° 0 mm 1 mps 737 mmHg 80%
    09:00 +27°C° 0 mm 1 mps 737 mmHg 72%
    10:00 +29°C° 0 mm 1 mps 737 mmHg 65%
    11:00 +31°C° 0 mm 1 mps 737 mmHg 59%
    12:00 +32°C° 0 mm 1 mps 736 mmHg 53%
    13:00 +34°C° 0 mm 1 mps 736 mmHg 47%
    14:00 +34°C° 0 mm 1 mps 735 mmHg 46%
    15:00 +34°C° 0 mm 1 mps 734 mmHg 45%
    16:00 +34°C° 0 mm 1 mps 734 mmHg 44%
    17:00 +33°C° 0 mm 1 mps 734 mmHg 50%
    18:00 +31°C° 0 mm 1 mps 734 mmHg 56%
    19:00 +29°C° 0 mm 1 mps 735 mmHg 62%
    20:00 +28°C° 0.8 mm 1 mps 735 mmHg 69%
    21:00 +27°C° 0.8 mm 1 mps 736 mmHg 76%
    22:00 +26°C° 0.8 mm 1 mps 737 mmHg 84%
    23:00 +26°C° 0.9 mm 1 mps 737 mmHg 85%

    Tomorrow, 15 August, Wednesday

    Time Temperature Precipitation Wind Pressure Humidity
    00:00 +25°C° 0.9 mm 1 mps 737 mmHg 87%
    01:00 +25°C° 0.9 mm 1 mps 737 mmHg 89%
    02:00 +25°C° 0.3 mm 1 mps 737 mmHg 90%
    03:00 +24°C° 0.3 mm 1 mps 736 mmHg 91%
    04:00 +24°C° 0.3 mm 1 mps 736 mmHg 92%
    05:00 +24°C° 0 mm 1 mps 736 mmHg 92%
    06:00 +24°C° 0 mm 1 mps 736 mmHg 91%
    07:00 +24°C° 0 mm 1 mps 737 mmHg 91%
    08:00 +26°C° 0 mm 1 mps 737 mmHg 82%
    09:00 +28°C° 0 mm 1 mps 737 mmHg 74%
    10:00 +30°C° 0 mm 1 mps 738 mmHg 65%
    11:00 +31°C° 0.3 mm 1 mps 737 mmHg 61%
    12:00 +32°C° 0.3 mm 1 mps 737 mmHg 58%
    13:00 +33°C° 0.3 mm 1 mps 736 mmHg 54%
    14:00 +33°C° 0.6 mm 1 mps 735 mmHg 55%
    15:00 +32°C° 0.6 mm 1 mps 735 mmHg 57%
    16:00 +32°C° 0.6 mm 1 mps 734 mmHg 58%
    17:00 +30°C° 0.1 mm 1 mps 734 mmHg 64%
    18:00 +29°C° 0.1 mm 1 mps 735 mmHg 69%
    19:00 +28°C° 0.1 mm 1 mps 735 mmHg 75%
    20:00 +27°C° 0.4 mm 1 mps 736 mmHg 77%
    21:00 +27°C° 0.4 mm 1 mps 736 mmHg 79%
    22:00 +26°C° 0.4 mm 1 mps 737 mmHg 81%
    23:00 +26°C° 1 mm 2 mps 737 mmHg 84%

    Day after tomorrow, 16 August, Thursday

    Time Temperature Precipitation Wind Pressure Humidity
    00:00 +25°C° 1 mm 2 mps 737 mmHg 86%
    01:00 +25°C° 1 mm 2 mps 737 mmHg 89%
    02:00 +24°C° 0.5 mm 2 mps 737 mmHg 90%
    03:00 +24°C° 0.5 mm 2 mps 737 mmHg 92%
    04:00 +24°C° 0.5 mm 1 mps 736 mmHg 94%
    05:00 +24°C° 0.1 mm 1 mps 737 mmHg 93%
    06:00 +24°C° 0.1 mm 1 mps 737 mmHg 93%
    07:00 +24°C° 0.1 mm 1 mps 737 mmHg 93%
    08:00 +25°C° 0 mm 1 mps 738 mmHg 84%
    09:00 +27°C° 0 mm 1 mps 738 mmHg 75%
    10:00 +29°C° 0 mm 1 mps 738 mmHg 67%
    11:00 +31°C° 0 mm 1 mps 738 mmHg 61%
    12:00 +32°C° 0 mm 1 mps 737 mmHg 55%
    13:00 +34°C° 0 mm 1 mps 736 mmHg 48%
    14:00 +33°C° 0.3 mm 1 mps 735 mmHg 50%
    15:00 +33°C° 0.3 mm 1 mps 735 mmHg 52%
    16:00 +33°C° 0.3 mm 1 mps 734 mmHg 54%
    17:00 +31°C° 0 mm 1 mps 734 mmHg 59%
    18:00 +30°C° 0 mm 1 mps 734 mmHg 64%
    19:00 +28°C° 0 mm 1 mps 735 mmHg 69%
    20:00 +28°C° 0.1 mm 1 mps 735 mmHg 72%
    21:00 +27°C° 0.1 mm 1 mps 736 mmHg 74%
    22:00 +27°C° 0.1 mm 1 mps 737 mmHg 76%
    23:00 +26°C° 0.1 mm 1 mps 737 mmHg 78%

    17 August, Friday

    Time Temperature Precipitation Wind Pressure Humidity
    00:00 +26°C° 0.1 mm 2 mps 737 mmHg 79%
    01:00 +26°C° 0.1 mm 2 mps 737 mmHg 80%
    02:00 +25°C° 0 mm 2 mps 736 mmHg 81%
    03:00 +25°C° 0 mm 2 mps 736 mmHg 82%
    04:00 +24°C° 0 mm 2 mps 736 mmHg 83%
    05:00 +24°C° 0 mm 2 mps 736 mmHg 83%
    06:00 +24°C° 0 mm 1 mps 737 mmHg 83%
    07:00 +24°C° 0 mm 1 mps 737 mmHg 84%
    08:00 +26°C° 0 mm 1 mps 737 mmHg 77%
    09:00 +27°C° 0 mm 2 mps 738 mmHg 70%
    10:00 +29°C° 0 mm 2 mps 738 mmHg 63%
    11:00 +30°C° 0 mm 2 mps 737 mmHg 58%
    12:00 +32°C° 0 mm 2 mps 736 mmHg 53%
    13:00 +34°C° 0 mm 2 mps 736 mmHg 48%
    14:00 +34°C° 0 mm 2 mps 735 mmHg 49%
    15:00 +34°C° 0 mm 2 mps 734 mmHg 50%
    16:00 +32°C° 0 mm 1 mps 733 mmHg 51%
    17:00 +31°C° 0 mm 1 mps 734 mmHg 56%
    18:00 +30°C° 0 mm 1 mps 734 mmHg 61%
    19:00 +28°C° 0 mm 1 mps 734 mmHg 66%
    20:00 +28°C° 0 mm 1 mps 735 mmHg 69%
    21:00 +27°C° 0 mm 1 mps 736 mmHg 72%
    22:00 +27°C° 0 mm 1 mps 736 mmHg 75%
    23:00 +26°C° 0 mm 1 mps 736 mmHg 76%

    18 August, Saturday

    Time Temperature Precipitation Wind Pressure Humidity
    00:00 +26°C° 0 mm 2 mps 736 mmHg 78%
    01:00 +25°C° 0 mm 2 mps 735 mmHg 79%
    02:00 +25°C° 0 mm 2 mps 735 mmHg 80%
    03:00 +24°C° 0 mm 2 mps 735 mmHg 82%
    04:00 +24°C° 0 mm 2 mps 735 mmHg 83%
    05:00 +24°C° 0 mm 1 mps 735 mmHg 84%
    06:00 +24°C° 0 mm 1 mps 736 mmHg 84%
    07:00 +24°C° 0 mm 1 mps 736 mmHg 84%
    08:00 +26°C° 0 mm 1 mps 736 mmHg 77%
    09:00 +27°C° 0 mm 1 mps 737 mmHg 70%
    10:00 +29°C° 0 mm 1 mps 737 mmHg 62%
    11:00 +31°C° 0 mm 2 mps 736 mmHg 57%
    12:00 +32°C° 0 mm 2 mps 736 mmHg 51%
    13:00 +35°C° 0 mm 2 mps 735 mmHg 46%
    14:00 +35°C° 0 mm 2 mps 734 mmHg 46%
    15:00 +35°C° 0 mm 2 mps 734 mmHg 45%
    16:00 +35°C° 0 mm 2 mps 733 mmHg 45%
    17:00 +32°C° 0.1 mm 2 mps 733 mmHg 51%
    18:00 +31°C° 0.1 mm 2 mps 734 mmHg 58%
    19:00 +29°C° 0.1 mm 1 mps 734 mmHg 64%
    20:00 +28°C° 0.1 mm 2 mps 735 mmHg 68%
    21:00 +27°C° 0.1 mm 2 mps 735 mmHg 72%
    22:00 +27°C° 0.1 mm 2 mps 736 mmHg 75%
    23:00 +26°C° 0 mm 2 mps 736 mmHg 77%

    19 August, Sunday

    Time Temperature Precipitation Wind Pressure Humidity
    00:00 +26°C° 0 mm 2 mps 736 mmHg 79%
    01:00 +25°C° 0 mm 2 mps 735 mmHg 80%
    02:00 +25°C° 0 mm 2 mps 735 mmHg 82%
    03:00 +24°C° 0 mm 2 mps 735 mmHg 84%
    04:00 +24°C° 0 mm 2 mps 735 mmHg 85%
    05:00 +24°C° 0 mm 1 mps 736 mmHg 85%
    06:00 +24°C° 0 mm 1 mps 736 mmHg 84%
    07:00 +24°C° 0 mm 1 mps 737 mmHg 83%
    08:00 +25°C° 0 mm 1 mps 737 mmHg 78%
    09:00 +26°C° 0 mm 2 mps 737 mmHg 73%
    10:00 +27°C° 0 mm 2 mps 738 mmHg 68%
    11:00 +28°C° 0 mm 2 mps 737 mmHg 65%
    12:00 +29°C° 0 mm 2 mps 736 mmHg 61%
    13:00 +30°C° 0 mm 2 mps 736 mmHg 58%
    14:00 +30°C° 0 mm 2 mps 735 mmHg 57%
    15:00 +30°C° 0 mm 2 mps 734 mmHg 56%
    16:00 +30°C° 0 mm 2 mps 734 mmHg 55%
    17:00 +29°C° 0 mm 2 mps 734 mmHg 60%
    18:00 +28°C° 0 mm 2 mps 735 mmHg 65%
    19:00 +27°C° 0 mm 1 mps 735 mmHg 70%
    20:00 +26°C° 0 mm 1 mps 736 mmHg 72%
    21:00 +26°C° 0 mm 1 mps 736 mmHg 74%
    22:00 +25°C° 0 mm 2 mps 737 mmHg 77%
    23:00 +25°C° 0 mm 2 mps 737 mmHg 79%
    Show more